Track COSMOS 778 now! 10-day predictions COSMOS 778 is classified as:
1 08419U 75103A 21016.81705168 .00000043 00000-0 29521-4 0 9994 2 08419 82.9760 311.5338 0021450 336.4444 74.6099 13.74621509266917